DG2GG-6 Weather Reports


time (UTC)temp
C
wind
direction
speed
KPH
gust
KPH
rain 1hr
cm
rain 24hr
cm
rain mn
cm
humidity
%
barometer
mb
20260502181705 17 127 0.0 0.0 0.00 0.00 0.00 70 1018.2
20260502181205 17 127 0.0 1.6 0.00 0.00 0.00 69 1018.2
20260502180705 17 127 0.0 1.6 0.00 0.00 0.00 69 1018.1
20260502170205 20 206 0.0 4.8 0.00 0.00 0.00 54 1018.1
20260502163705 21 274 3.2 6.4 0.00 0.00 0.00 51 1018.3
20260502163205 21 280 3.2 6.4 0.00 0.00 0.00 50 1018.3
20260502162205 21 301 4.8 8.0 0.00 0.00 0.00 48 1018.6
20260502161705 21 309 4.8 8.0 0.00 0.00 0.00 46 1018.7
20260502160705 22 261 3.2 8.0 0.00 0.00 0.00 44 1018.7
20260502160205 22 329 3.2 8.0 0.00 0.00 0.00 44 1018.8
20260502152205 23 357 4.8 9.7 0.00 0.00 0.00 42 1019.1
20260502151205 23 326 3.2 8.0 0.00 0.00 0.00 44 1019.1
20260502150705 23 322 4.8 8.0 0.00 0.00 0.00 43 1019.2
20260502150205 23 283 3.2 8.0 0.00 0.00 0.00 42 1019.2
20260502130205 22 216 1.6 4.8 0.00 0.00 0.00 47 1020.7
20260502123205 21 251 3.2 9.7 0.00 0.00 0.00 46 1021.1
20260502122705 21 220 4.8 9.7 0.00 0.00 0.00 49 1021.1
20260502122204 21 221 4.8 9.7 0.00 0.00 0.00 46 1021.2
20260502121705 22 204 3.2 12.9 0.00 0.00 0.00 49 1021.2
20260502121205 23 193 3.2 12.9 0.00 0.00 0.00 48 1021.2
20260502120705 22 155 3.2 12.9 0.00 0.00 0.00 47 1021.4
20260502120205 22 183 3.2 8.0 0.00 0.00 0.00 50 1021.3
20260502115705 22 131 3.2 8.0 0.00 0.00 0.00 49 1021.4
20260502115204 22 186 1.6 4.8 0.00 0.00 0.00 46 1021.4
20260502114705 22 63 1.6 3.2 0.00 0.00 0.00 45 1021.5
20260502114205 22 28 1.6 3.2 0.00 0.00 0.00 45 1021.6
20260502113705 22 101 1.6 3.2 0.00 0.00 0.00 47 1021.6
20260502113205 22 120 1.6 3.2 0.00 0.00 0.00 52 1021.7
20260502112205 20 166 0.0 4.8 0.00 0.00 0.00 51 1021.8
20260502111705 20 122 0.0 6.4 0.00 0.00 0.00 51 1021.8
20260502111205 20 122 1.6 8.0 0.00 0.00 0.00 52 1021.8
20260502110205 20 48 4.8 8.0 0.00 0.00 0.00 50 1021.9
20260502105705 20 290 4.8 8.0 0.00 0.00 0.00 52 1022.0
20260502105205 20 265 3.2 6.4 0.00 0.00 0.00 52 1021.9
20260502104205 20 321 1.6 9.7 0.00 0.00 0.00 50 1022.0
20260502103705 20 271 3.2 14.5 0.00 0.00 0.00 51 1022.0
20260502103205 20 357 4.8 14.5 0.00 0.00 0.00 51 1022.0
20260502102705 20 325 6.4 14.5 0.00 0.00 0.00 51 1022.1
20260502102205 20 318 6.4 11.3 0.00 0.00 0.00 52 1022.3
20260502101705 21 317 3.2 8.0 0.00 0.00 0.00 51 1022.3
20260502101205 21 303 1.6 4.8 0.00 0.00 0.00 52 1022.4
20260502100705 21 153 1.6 6.4 0.00 0.00 0.00 49 1022.4
20260502100205 20 155 1.6 8.0 0.00 0.00 0.00 52 1022.4
20260502091205 19 284 4.8 6.4 0.00 0.00 0.00 54 1023.0
20260502090705 19 279 1.6 6.4 0.00 0.00 0.00 54 1022.9
20260502090205 19 221 1.6 11.3 0.00 0.00 0.00 56 1022.9
20260502071205 11 141 0.0 1.6 0.00 0.00 0.00 64 1023.4
20260502070705 11 141 0.0 1.6 0.00 0.00 0.00 68 1023.4
20260502070205 11 141 0.0 1.6 0.00 0.00 0.00 68 1023.6
20260502065705 10 141 0.0 1.6 0.00 0.00 0.00 70 1023.6
20260502065205 10 141 0.0 1.6 0.00 0.00 0.00 72 1023.6
20260502064705 10 141 0.0 1.6 0.00 0.00 0.00 74 1023.7
20260502064205 9 141 0.0 1.6 0.00 0.00 0.00 75 1023.7
20260502063705 9 141 0.0 1.6 0.00 0.00 0.00 76 1023.6
20260502062705 8 141 0.0 0.0 0.00 0.00 0.00 81 1023.6
20260502062205 8 141 0.0 0.0 0.00 0.00 0.00 83 1023.6
20260502061705 7 141 0.0 1.6 0.00 0.00 0.00 84 1023.6
20260502060705 7 141 0.0 1.6 0.00 0.00 0.00 84 1023.6
20260502055205 6 153 0.0 1.6 0.00 0.00 0.00 87 1023.6
20260502054705 5 180 0.0 1.6 0.00 0.00 0.00 85 1023.6
20260502054205 5 191 0.0 1.6 0.00 0.00 0.00 86 1023.6
20260502053205 5 191 0.0 0.0 0.00 0.00 0.00 86 1023.7
20260502052705 5 191 0.0 0.0 0.00 0.00 0.00 88 1023.7
20260502051705 3 191 0.0 0.0 0.00 0.00 0.00 89 1023.7
20260502051205 3 191 0.0 0.0 0.00 0.00 0.00 89 1023.6
20260502050728 3 191 0.0 0.0 0.00 0.00 0.00 91 1023.6
20260502050205 2 191 0.0 0.0 0.00 0.00 0.00 91 1023.6
20260502045705 2 191 0.0 0.0 0.00 0.00 0.00 90 1023.4
20260502045205 2 191 0.0 0.0 0.00 0.00 0.00 90 1023.6
20260502044705 2 191 0.0 0.0 0.00 0.00 0.00 90 1023.6
20260502044205 2 191 0.0 0.0 0.00 0.00 0.00 90 1023.6
20260502043704 2 191 0.0 0.0 0.00 0.00 0.00 90 1023.6
20260502043205 1 191 0.0 0.0 0.00 0.00 0.00 90 1023.6
20260502042705 1 191 0.0 3.2 0.00 0.00 0.00 90 1023.4
20260502042205 1 191 0.0 3.2 0.00 0.00 0.00 90 1023.6
20260502041705 1 191 0.0 3.2 0.00 0.00 0.00 90 1023.6
20260502041205 1 191 0.0 1.6 0.00 0.00 0.00 90 1023.6
20260502040705 1 191 0.0 1.6 0.00 0.00 0.00 90 1023.6
20260502040204 1 191 0.0 0.0 0.00 0.00 0.00 90 1023.6
20260502035705 1 191 0.0 0.0 0.00 0.00 0.00 90 1023.7
20260502035205 1 191 0.0 0.0 0.00 0.00 0.00 89 1023.6
20260502034705 1 191 0.0 0.0 0.00 0.00 0.00 89 1023.6
20260502034205 2 191 0.0 0.0 0.00 0.00 0.00 90 1023.6
20260502033705 2 191 0.0 0.0 0.00 0.00 0.00 89 1023.7
20260502033205 2 191 0.0 0.0 0.00 0.00 0.00 89 1023.7
20260502032705 2 191 0.0 0.0 0.00 0.00 0.00 89 1023.7
20260502032205 2 191 0.0 0.0 0.00 0.00 0.00 89 1023.7
20260502031705 2 191 0.0 0.0 0.00 0.00 0.00 89 1023.6
20260502030704 2 191 0.0 0.0 0.00 0.00 0.00 89 1023.6
20260502030205 2 191 0.0 0.0 0.00 0.00 0.00 89 1023.7
20260502025705 2 191 0.0 0.0 0.00 0.00 0.00 89 1023.7
20260502025205 2 191 0.0 1.6 0.00 0.00 0.00 89 1023.8
20260502024705 2 191 0.0 1.6 0.00 0.00 0.00 89 1023.7
20260502024205 2 191 0.0 3.2 0.00 0.00 0.00 89 1023.7
20260502023705 2 191 1.6 3.2 0.00 0.00 0.00 88 1023.7
20260502022705 2 135 0.0 1.6 0.00 0.00 0.00 88 1023.8
20260502022205 2 135 0.0 1.6 0.00 0.00 0.00 87 1023.8
20260502021205 2 212 0.0 0.0 0.00 0.00 0.00 87 1023.8
20260502020705 2 212 0.0 0.0 0.00 0.00 0.00 87 1023.8
20260502020205 2 212 0.0 0.0 0.00 0.00 0.00 87 1023.8
20260502015704 2 212 0.0 0.0 0.00 0.00 0.00 87 1023.9
20260502015205 2 212 0.0 0.0 0.00 0.00 0.00 86 1023.9
20260502014705 2 212 0.0 0.0 0.00 0.00 0.00 86 1024.0
20260502014205 2 212 0.0 1.6 0.00 0.00 0.00 86 1024.0
20260502013705 2 212 0.0 1.6 0.00 0.00 0.00 86 1024.0
20260502013204 2 212 0.0 1.6 0.00 0.00 0.00 86 1024.1
20260502012205 2 212 0.0 1.6 0.00 0.00 0.00 86 1024.0
20260502011731 2 212 0.0 0.0 0.00 0.00 0.00 86 1024.1
20260502010705 3 212 0.0 0.0 0.00 0.00 0.00 86 1024.1
20260502010205 3 212 0.0 0.0 0.00 0.00 0.00 86 1024.1
20260502005205 3 212 0.0 1.6 0.00 0.00 0.00 85 1024.1
20260502004705 3 212 0.0 1.6 0.00 0.00 0.00 85 1024.3
20260502004205 3 212 0.0 0.0 0.00 0.00 0.00 85 1024.2
20260502003705 3 212 0.0 0.0 0.00 0.00 0.00 85 1024.3
20260502003205 3 212 0.0 1.6 0.00 0.00 0.00 85 1024.3
20260502002705 3 212 0.0 1.6 0.00 0.00 0.00 85 1024.3
20260502002205 3 212 0.0 1.6 0.00 0.00 0.00 84 1024.3
20260502001705 3 212 0.0 1.6 0.00 0.00 0.00 84 1024.4
20260502001205 3 212 0.0 0.0 0.00 0.00 0.00 84 1024.4
20260502000206 3 212 0.0 1.6 0.00 0.00 0.00 84 1024.5
20260501235204 3 212 0.0 0.0 0.00 0.00 0.00 83 1024.5
20260501234705 3 212 0.0 0.0 0.00 0.00 0.00 82 1024.5
20260501234204 4 212 0.0 0.0 0.00 0.00 0.00 82 1024.5
20260501233204 4 212 0.0 0.0 0.00 0.00 0.00 82 1024.6
20260501232705 4 212 0.0 0.0 0.00 0.00 0.00 81 1024.6
20260501232205 4 212 0.0 1.6 0.00 0.00 0.00 81 1024.6
20260501231705 4 212 0.0 1.6 0.00 0.00 0.00 81 1024.6
20260501231205 4 212 0.0 1.6 0.00 0.00 0.00 81 1024.6
20260501230705 4 212 0.0 0.0 0.00 0.00 0.00 81 1024.6
20260501230205 5 212 0.0 1.6 0.00 0.00 0.00 80 1024.6
20260501225705 5 212 0.0 1.6 0.00 0.00 0.00 80 1024.6
20260501225204 5 212 0.0 1.6 0.00 0.00 0.00 80 1024.6
20260501224706 5 212 0.0 0.0 0.00 0.00 0.00 79 1024.6
20260501224205 5 212 0.0 0.0 0.00 0.00 0.00 79 1024.6
20260501223705 5 212 0.0 0.0 0.00 0.00 0.00 79 1024.5
20260501223205 5 212 0.0 0.0 0.00 0.00 0.00 79 1024.6
20260501222205 5 212 0.0 0.0 0.00 0.00 0.00 79 1024.6
20260501221705 5 212 0.0 0.0 0.00 0.00 0.00 78 1024.8
20260501221205 5 212 0.0 0.0 0.00 0.00 0.00 77 1024.6
20260501220705 5 212 0.0 1.6 0.00 0.00 0.00 77 1024.6
20260501220205 6 212 0.0 1.6 0.00 0.00 0.00 77 1024.5
20260501215705 6 212 0.0 1.6 0.00 0.00 0.00 77 1024.5
20260501215205 6 212 0.0 1.6 0.00 0.00 0.00 77 1024.6
20260501214705 6 191 0.0 0.0 0.00 0.00 0.00 77 1024.6
20260501213705 6 191 0.0 0.0 0.00 0.00 0.00 76 1024.6
20260501213205 6 191 0.0 0.0 0.00 0.00 0.00 75 1024.5
20260501212705 6 191 0.0 1.6 0.00 0.00 0.00 75 1024.4
20260501212205 6 191 0.0 1.6 0.00 0.00 0.00 75 1024.5
20260501211705 6 191 0.0 1.6 0.00 0.00 0.00 74 1024.5
20260501211205 7 191 0.0 0.0 0.00 0.00 0.00 73 1024.4
20260501210706 7 191 0.0 1.6 0.00 0.00 0.00 73 1024.4
20260501210205 7 191 0.0 1.6 0.00 0.00 0.00 73 1024.5
20260501205205 7 191 0.0 0.0 0.00 0.00 0.00 71 1024.4
20260501204706 7 191 0.0 1.6 0.00 0.00 0.00 71 1024.4
20260501203705 8 191 0.0 1.6 0.00 0.00 0.00 69 1024.4
20260501203205 8 191 0.0 0.0 0.00 0.00 0.00 68 1024.4
20260501202705 8 191 0.0 0.0 0.00 0.00 0.00 68 1024.4
20260501201705 8 191 0.0 1.6 0.00 0.00 0.00 66 1024.3
20260501201205 8 191 0.0 1.6 0.00 0.00 0.00 66 1024.3
20260501200705 9 191 0.0 1.6 0.00 0.00 0.00 65 1024.3
20260501200205 9 191 0.0 1.6 0.00 0.00 0.00 64 1024.3
20260501195705 9 191 0.0 0.0 0.00 0.00 0.00 63 1024.3
20260501195205 10 191 0.0 1.6 0.00 0.00 0.00 62 1024.3
20260501194705 10 191 0.0 1.6 0.00 0.00 0.00 62 1024.2
20260501194205 10 191 0.0 0.0 0.00 0.00 0.00 61 1024.1
20260501193705 10 191 0.0 0.0 0.00 0.00 0.00 60 1024.1
20260501193205 10 191 0.0 0.0 0.00 0.00 0.00 59 1024.1
20260501192705 11 191 0.0 0.0 0.00 0.00 0.00 58 1024.1
20260501192205 11 191 0.0 0.0 0.00 0.00 0.00 56 1024.1
20260501191205 11 191 0.0 0.0 0.00 0.00 0.00 54 1024.0
20260501190705 12 191 0.0 1.6 0.00 0.00 0.00 53 1024.0
20260501190205 12 191 0.0 1.6 0.00 0.00 0.00 52 1024.0
20260501185705 12 191 0.0 1.6 0.00 0.00 0.00 52 1023.9
20260501185205 13 191 0.0 1.6 0.00 0.00 0.00 50 1023.9
20260501184705 13 191 0.0 3.2 0.00 0.00 0.00 50 1023.9
20260501183705 14 191 0.0 3.2 0.00 0.00 0.00 50 1023.8
20260501183205 14 119 0.0 1.6 0.00 0.00 0.00 44 1023.8
20260501182205 15 119 0.0 1.6 0.00 0.00 0.00 42 1023.7